Weather Roundup
Issued by NWS

Home | Current Version | Previous Version | Text Only | Print | Product List | Glossary On
Versions: 1 2 3 4 5 6 7 8 9 10 11 12 13 14 15 16 17 18 19 20 21 22 23 24 25 26 27 28 29 30 31 32 33 34 35 36 37 38 39 40 41 42 43 44 45 46 47 48 49 50
000
NZUS93 KARX 290559
HRRWXR

CURRENT HOURLY OBSERVATIONS ACROSS
MUCH OF THE UPPER MISSISSIPPI VALLEY
NATIONAL WEATHER SERVICE LA CROSSE WI
100 AM CDT SUN MAR 29 2015


...SOUTHEAST MINNESOTA...


CITY           SKY/WX    TMP DP  RH WIND       PRES   REMARKS
ROCHESTER      CLEAR     31  19  61 S23G31    29.94F WCI  18
ROCHESTER/MAYO FAIR      32  19  57 SE16G26   29.95F WCI  22
WINONA         MOCLDY    36  18  48 S8        30.02F WCI  29
AUSTIN         CLEAR     34  19  55 S20G25    29.95F WCI  22
ALBERT LEA     CLEAR     36  21  55 S20G29    29.91F WCI  25
DODGE CENTER   PTCLDY    32  21  64 S22       29.92F WCI  19
PRESTON        PTCLDY    31  18  59 S20G29    29.99F WCI  19
OWATONNA       CLEAR     36  21  55 S21G30    29.91F WCI  24
FARIBAULT      CLEAR     36  21  55 S17G30    29.91F WCI  25
$$

...ELSEWHERE IN MINNESOTA...


CITY           SKY/WX    TMP DP  RH WIND       PRES   REMARKS
MINNEAPOLIS    PTCLDY    36  20  52 S17G26    29.90F WCI  26
INTNL FALLS    LGT RAIN  37  24  59 S10G21    29.66F WCI  30
DULUTH         MOCLDY    34  18  52 S16G26    29.80F WCI  24
RED WING       MOCLDY    36  16  44 S14G20    29.94F WCI  27
REDWOOD FALLS  CLEAR     38  28  67 S20       29.77F WCI  28
MANKATO        CLEAR     37  21  52 S16G26    29.88S WCI  28
WORTHINGTON    CLEAR     37  27  65 S29G36    29.78F WCI  25
FAIRMONT       CLEAR     36  23  60 S23G29    29.85F WCI  24
$$

...SOUTHWEST WISCONSIN...


CITY           SKY/WX    TMP DP  RH WIND       PRES   REMARKS
LA CROSSE      CLOUDY    37  16  42 S16G24    30.04F WCI  28
PRAIRIE DU CHI MOCLDY    35  14  42 SE7G16    30.12F WCI  29
BOSCOBEL       MOCLDY    34  14  43 S8        30.12F WCI  27
LONE ROCK      NOT AVBL
PLATTEVILLE    MOCLDY    30  18  60 SE9       30.14F WCI  22
FORT MC COY    CLOUDY    35  12  38 S16       30.08F WCI  25
CAMP DOUGLAS   CLOUDY    32  14  46 S7        30.07F WCI  26
VIROQUA        FAIR      32  16  52 S14       30.07F WCI  22
WIS DELLS      NOT AVBL
$$

...ELSEWHERE IN WISCONSIN...


CITY           SKY/WX    TMP DP  RH WIND       PRES   REMARKS
MILWAUKEE      PTCLDY    25  12  58 S8        30.22F WCI  16
MADISON        PTCLDY    32  15  49 S10       30.16F WCI  24
GREEN BAY      PTCLDY    28  20  71 S9        30.14F WCI  19
EAU CLAIRE     NOT AVBL
BLACK RVR FLS  FAIR      34  12  39 S7        30.03F WCI  28
MEDFORD        MOCLDY    31  17  57 S13       30.01F WCI  21
WAUSAU         MOCLDY    31  15  52 S12       30.03F WCI  22
WIS RAPIDS     MOCLDY    31  11  43 S10       30.08F WCI  22
MARSHFIELD     MOCLDY    32  14  47 S12       30.04F WCI  23
RICE LAKE      MOCLDY    33  16  49 S13       29.94F WCI  24
$$

...NORTHEAST IOWA...


CITY           SKY/WX    TMP DP  RH WIND       PRES   REMARKS
DECORAH        CLOUDY    32  18  55 S13       30.04F WCI  22
MASON CITY     CLEAR     32  22  66 S20G25    29.96F WCI  20
CHARLES CITY   FAIR      34  19  55 S20G28    30.03F WCI  22
OELWEIN        CLOUDY    32  18  55 S17G24    30.08F WCI  21
$$

...ELSEWHERE IN IOWA...


CITY           SKY/WX    TMP DP  RH WIND       PRES   REMARKS
DES MOINES     CLEAR     38  23  55 S17       30.04F WCI  28
IOWA CITY      CLEAR     32  19  58 SE14      30.15F WCI  22
FORT DODGE     CLEAR     37  23  56 S21       29.95F WCI  27
$$

...NORTHERN ILLINOIS...


CITY           SKY/WX    TMP DP  RH WIND       PRES   REMARKS
CHICAGO-OHARE  PTCLDY    23  14  68 S7        30.25F WCI  15
CHICAGO-MIDWAY CLEAR     28  12  51 S8        30.28S WCI  20
MOLINE         CLEAR     30  17  58 S13       30.18F WCI  20
ROCKFORD       MOCLDY    30  17  58 S12       30.23F WCI  20
PEORIA         CLEAR     32  19  58 S7        30.25F WCI  26
$$

NOTE: "FAIR" INDICATES FEW OR NO CLOUDS BELOW 12,000 FEET WITH NO
SIGNIFICANT WEATHER AND/OR OBSTRUCTIONS TO VISIBILITY. WIND
SPEEDS ARE IN MILES-PER-HOUR.



USA.gov is the U.S. government's official web portal to all federal, state and local government web resources and services.